Location: ?????
(31.8092°N, 35.2590°E)
Time: 18:30:40
(UTC+00:00)

Cosmos 2237 Rocket - Pass Details

Date: 20 June 2021
Orbit: 835 x 850 km, 71.0° (Epoch: 31 July)

Event Time Altitude Azimuth Distance (km) Brightness Sun altitude
Exits shadow 20:41:25 38° 294° (WNW) 1,256 3.3 -33.0°
Maximum altitude 20:41:27 38° 295° (WNW) 1,256 3.3 -33.0°
Drops below altitude 10° 20:46:39 10° 3° (N) 2,448 5.4 -33.3°
Sets 20:49:16 0° 11° (N) 3,386 6.2 -33.4°
